Location: Heiligenberg
(48.5381°N, 7.3897°E)
Time: 11:50:34
(UTC+00:00)

AQUA - Visible Passes

Search period start: 26 September 2022 00:00
Search period end: 06 October 2022 00:00
Orbit: 701 x 702 km, 98.3° (Epoch: 25 September)

Date Brightness Start Highest point End Pass type
(mag) Time Alt. Az. Time Alt. Az. Time Alt. Az.
26 Sep 6.7 00:29:24 10° NE 00:29:55 12° NE 00:29:55 12° NE visible
26 Sep 5.3 02:06:15 10° N 02:08:47 30° N 02:08:47 30° N visible
27 Sep 6.1 01:11:03 10° NNE 01:12:47 21° NE 01:12:47 21° NE visible
27 Sep 5.5 02:49:14 10° N 02:51:39 22° NW 02:51:39 22° NW visible
28 Sep 5.5 01:53:24 10° N 01:55:39 28° N 01:55:39 28° N visible
28 Sep 5.9 03:33:12 10° NNW 03:34:30 12° NW 03:34:30 12° NW visible
29 Sep 6.4 00:58:25 10° NNE 00:59:39 17° NE 00:59:39 17° NE visible
29 Sep 5.5 02:36:14 10° N 02:38:31 23° NNW 02:38:31 23° NNW visible
30 Sep 5.8 01:40:37 10° NNE 01:42:31 24° NNE 01:42:31 24° NNE visible
30 Sep 5.8 03:19:44 10° NNW 03:21:22 14° NW 03:21:22 14° NW visible
01 Oct 6.7 00:45:52 10° NE 00:46:31 13° NE 00:46:31 13° NE visible
01 Oct 5.6 02:23:17 10° N 02:25:22 24° NNW 02:25:22 24° NNW visible
02 Oct 6.2 01:27:51 10° NNE 01:29:22 20° NNE 01:29:22 20° NNE visible
02 Oct 5.8 03:06:31 10° NNW 03:08:13 16° NNW 03:08:13 16° NNW visible
03 Oct 5.8 02:10:24 10° N 02:12:13 23° N 02:12:13 23° N visible
04 Oct 6.4 01:15:08 10° NNE 01:16:13 17° NNE 01:16:13 17° NNE visible
04 Oct 5.8 02:53:25 10° N 02:55:04 18° NNW 02:55:04 18° NNW visible
05 Oct 6.0 01:57:32 10° N 01:59:04 21° N 01:59:04 21° N visible
05 Oct 6.1 03:37:37 10° NW 03:37:55 11° NW 03:37:55 11° NW visible
